Powrót do katalogu

STARLINK-30558

AktywnyŁącznośćVLEO
NORAD 58060·PAYLOAD·🇺🇸 United States

Wystrzelony Oct 13, 2023 z Cape Canaveral Space Force Station

Loading…

Następne Przeloty (najbliższe 24 godziny)

TLE

ŚwieżeSource: CelesTrak SupGP

Epoka: Sep 15, 2026, 02:41 UTC

1 58060C 23158K   26258.11229167 -.00058395  00000+0 -21151-2 0  2581
2 58060  43.0027  37.5355 0001533 262.3689 207.6884 15.27606333    15

Śledź STARLINK-30558 w czasie rzeczywistym z AllMySat

Download on the App Store